When you browse on this site, cookies collect data to enhance your experience and personalize the content and advertising you see.
Visit our Privacy Policy to learn more. By continuing to use the site, you agree to this use of cookies and data.
  • Em Portugal
  • Lista de países
  • Para 7 dias
  • Temperatura da água
  • Mapa do tempo
  • Widgets de tempo
  • user-avatar
    Iniciar Sessão

    Previsão horária em Luxemburgo

    Hoje, 7 Abril, Terça-feira

    Tempo Temperatura Precipitação Vento Pressão Humidade
    00:00 +11°C° 0 mm 1 m/s 740 mmHg 91%
    01:00 +11°C° 0 mm 1 m/s 741 mmHg 92%
    02:00 +10°C° 0 mm 1 m/s 741 mmHg 92%
    03:00 +10°C° 0 mm 1 m/s 741 mmHg 92%
    04:00 +10°C° 0 mm 1 m/s 741 mmHg 93%
    05:00 +10°C° 0 mm 1 m/s 742 mmHg 93%
    06:00 +10°C° 0 mm 1 m/s 742 mmHg 93%
    07:00 +12°C° 0 mm 1 m/s 742 mmHg 86%
    08:00 +14°C° 0 mm 2 m/s 742 mmHg 79%
    09:00 +15°C° 0 mm 2 m/s 743 mmHg 72%
    10:00 +17°C° 0 mm 2 m/s 742 mmHg 67%
    11:00 +18°C° 0 mm 2 m/s 742 mmHg 61%
    12:00 +19°C° 0 mm 2 m/s 742 mmHg 55%
    13:00 +19°C° 0 mm 2 m/s 742 mmHg 54%
    14:00 +20°C° 0 mm 2 m/s 741 mmHg 52%
    15:00 +20°C° 0 mm 2 m/s 741 mmHg 51%
    16:00 +18°C° 0 mm 2 m/s 741 mmHg 57%
    17:00 +17°C° 0 mm 2 m/s 740 mmHg 63%
    18:00 +15°C° 0 mm 2 m/s 740 mmHg 69%
    19:00 +14°C° 0 mm 2 m/s 740 mmHg 72%
    20:00 +13°C° 0 mm 2 m/s 740 mmHg 76%
    21:00 +12°C° 0 mm 1 m/s 741 mmHg 79%
    22:00 +12°C° 0 mm 1 m/s 740 mmHg 80%
    23:00 +11°C° 0 mm 1 m/s 740 mmHg 81%

    Amanhã, 8 Abril, Quarta-feira

    Tempo Temperatura Precipitação Vento Pressão Humidade
    00:00 +11°C° 0 mm 1 m/s 740 mmHg 81%
    01:00 +11°C° 0 mm 1 m/s 740 mmHg 82%
    02:00 +10°C° 0 mm 1 m/s 740 mmHg 83%
    03:00 +10°C° 0 mm 1 m/s 740 mmHg 84%
    04:00 +10°C° 0 mm 1 m/s 740 mmHg 83%
    05:00 +10°C° 0 mm 1 m/s 740 mmHg 82%
    06:00 +10°C° 0 mm 1 m/s 740 mmHg 81%
    07:00 +13°C° 0 mm 1 m/s 740 mmHg 73%
    08:00 +15°C° 0 mm 1 m/s 740 mmHg 66%
    09:00 +18°C° 0 mm 1 m/s 740 mmHg 58%
    10:00 +19°C° 0 mm 1 m/s 740 mmHg 53%
    11:00 +20°C° 0 mm 1 m/s 740 mmHg 48%
    12:00 +21°C° 0 mm 1 m/s 739 mmHg 44%
    13:00 +21°C° 0 mm 1 m/s 739 mmHg 43%
    14:00 +21°C° 0 mm 1 m/s 739 mmHg 42%
    15:00 +21°C° 0 mm 1 m/s 738 mmHg 41%
    16:00 +20°C° 0 mm 1 m/s 738 mmHg 46%
    17:00 +18°C° 0 mm 1 m/s 738 mmHg 51%
    18:00 +15°C° 0 mm 0 m/s 738 mmHg 57%
    19:00 +14°C° 0 mm 0 m/s 738 mmHg 58%
    20:00 +13°C° 0 mm 0 m/s 738 mmHg 59%
    21:00 +13°C° 0 mm 0 m/s 738 mmHg 60%
    22:00 +12°C° 0 mm 0 m/s 738 mmHg 62%
    23:00 +12°C° 0 mm 0 m/s 738 mmHg 64%

    Depois de amanhã, 9 Abril, Quinta-feira

    Tempo Temperatura Precipitação Vento Pressão Humidade
    00:00 +11°C° 0 mm 0 m/s 738 mmHg 66%
    01:00 +11°C° 0 mm 0 m/s 738 mmHg 68%
    02:00 +10°C° 0 mm 0 m/s 738 mmHg 69%
    03:00 +10°C° 0 mm 0 m/s 737 mmHg 71%
    04:00 +10°C° 0 mm 0 m/s 737 mmHg 72%
    05:00 +10°C° 0 mm 0 m/s 738 mmHg 72%
    06:00 +10°C° 0 mm 0 m/s 738 mmHg 73%
    07:00 +13°C° 0 mm 0 m/s 738 mmHg 67%
    08:00 +15°C° 0 mm 0 m/s 738 mmHg 60%
    09:00 +17°C° 0 mm 0 m/s 739 mmHg 54%
    10:00 +20°C° 0 mm 1 m/s 738 mmHg 51%
    11:00 +21°C° 0 mm 1 m/s 738 mmHg 48%
    12:00 +20°C° 0 mm 2 m/s 738 mmHg 46%
    13:00 +20°C° 0 mm 2 m/s 738 mmHg 46%
    14:00 +20°C° 0 mm 2 m/s 738 mmHg 46%
    15:00 +21°C° 0 mm 1 m/s 738 mmHg 47%
    16:00 +20°C° 0 mm 1 m/s 737 mmHg 54%
    17:00 +19°C° 0 mm 1 m/s 737 mmHg 60%
    18:00 +16°C° 0 mm 1 m/s 737 mmHg 67%
    19:00 +15°C° 0 mm 1 m/s 737 mmHg 70%
    20:00 +14°C° 0 mm 1 m/s 737 mmHg 73%
    21:00 +13°C° 0 mm 1 m/s 738 mmHg 76%
    22:00 +13°C° 0 mm 1 m/s 738 mmHg 78%
    23:00 +12°C° 0 mm 1 m/s 738 mmHg 80%

    10 Abril, Sexta-feira

    Tempo Temperatura Precipitação Vento Pressão Humidade
    00:00 +12°C° 0 mm 1 m/s 738 mmHg 81%
    01:00 +11°C° 0 mm 1 m/s 738 mmHg 82%
    02:00 +11°C° 0 mm 1 m/s 737 mmHg 84%
    03:00 +11°C° 0 mm 1 m/s 737 mmHg 85%
    04:00 +11°C° 0 mm 1 m/s 737 mmHg 84%
    05:00 +11°C° 0 mm 1 m/s 737 mmHg 83%
    06:00 +12°C° 0 mm 1 m/s 738 mmHg 82%
    07:00 +14°C° 0 mm 1 m/s 738 mmHg 75%
    08:00 +16°C° 0 mm 1 m/s 738 mmHg 68%
    09:00 +17°C° 0 mm 2 m/s 738 mmHg 61%
    10:00 +18°C° 0 mm 2 m/s 738 mmHg 57%
    11:00 +19°C° 0 mm 2 m/s 737 mmHg 52%
    12:00 +20°C° 0 mm 2 m/s 737 mmHg 47%
    13:00 +21°C° 0 mm 2 m/s 737 mmHg 47%
    14:00 +21°C° 0 mm 2 m/s 736 mmHg 47%
    15:00 +21°C° 0 mm 2 m/s 736 mmHg 47%
    16:00 +19°C° 0 mm 2 m/s 735 mmHg 53%
    17:00 +19°C° 0 mm 1 m/s 735 mmHg 60%
    18:00 +16°C° 0 mm 1 m/s 735 mmHg 67%
    19:00 +15°C° 0 mm 1 m/s 735 mmHg 68%
    20:00 +14°C° 0 mm 0 m/s 735 mmHg 69%
    21:00 +13°C° 0 mm 0 m/s 735 mmHg 70%
    22:00 +13°C° 0 mm 0 m/s 735 mmHg 71%
    23:00 +12°C° 0 mm 0 m/s 735 mmHg 72%

    11 Abril, Sábado

    Tempo Temperatura Precipitação Vento Pressão Humidade
    00:00 +13°C° 0 mm 1 m/s 735 mmHg 73%
    01:00 +13°C° 0 mm 1 m/s 734 mmHg 74%
    02:00 +13°C° 0 mm 1 m/s 734 mmHg 75%
    03:00 +12°C° 0 mm 1 m/s 734 mmHg 76%
    04:00 +13°C° 0 mm 1 m/s 734 mmHg 77%
    05:00 +13°C° 0 mm 1 m/s 734 mmHg 79%
    06:00 +13°C° 0 mm 1 m/s 734 mmHg 80%
    07:00 +14°C° 0 mm 1 m/s 734 mmHg 78%
    08:00 +15°C° 0 mm 2 m/s 734 mmHg 75%
    09:00 +16°C° 0 mm 3 m/s 734 mmHg 72%
    10:00 +16°C° 0.1 mm 3 m/s 734 mmHg 71%
    11:00 +17°C° 0.1 mm 3 m/s 733 mmHg 70%
    12:00 +17°C° 0.1 mm 3 m/s 733 mmHg 69%
    13:00 +15°C° 0.8 mm 4 m/s 733 mmHg 76%
    14:00 +14°C° 0.8 mm 4 m/s 732 mmHg 83%
    15:00 +13°C° 0.8 mm 4 m/s 732 mmHg 90%
    16:00 +13°C° 0.8 mm 4 m/s 732 mmHg 92%
    17:00 +12°C° 0.8 mm 4 m/s 732 mmHg 94%
    18:00 +12°C° 0.8 mm 3 m/s 732 mmHg 95%
    19:00 +12°C° 0.4 mm 4 m/s 732 mmHg 95%
    20:00 +12°C° 0.4 mm 5 m/s 732 mmHg 94%
    21:00 +11°C° 0.4 mm 6 m/s 733 mmHg 94%
    22:00 +10°C° 0.8 mm 6 m/s 733 mmHg 94%
    23:00 +10°C° 0.8 mm 5 m/s 733 mmHg 93%

    12 Abril, Domingo

    Tempo Temperatura Precipitação Vento Pressão Humidade
    00:00 +10°C° 0.8 mm 5 m/s 733 mmHg 93%
    01:00 +10°C° 0.3 mm 5 m/s 733 mmHg 93%
    02:00 +11°C° 0.3 mm 4 m/s 733 mmHg 93%
    03:00 +11°C° 0.3 mm 4 m/s 733 mmHg 93%
    04:00 +11°C° 0 mm 4 m/s 734 mmHg 93%
    05:00 +10°C° 0 mm 4 m/s 734 mmHg 93%
    06:00 +10°C° 0 mm 4 m/s 735 mmHg 92%
    07:00 +11°C° 0 mm 4 m/s 735 mmHg 89%
    08:00 +11°C° 0 mm 4 m/s 735 mmHg 87%
    09:00 +10°C° 0 mm 5 m/s 735 mmHg 84%
    10:00 +12°C° 0.1 mm 5 m/s 735 mmHg 80%
    11:00 +12°C° 0.1 mm 5 m/s 735 mmHg 76%
    12:00 +13°C° 0.1 mm 5 m/s 735 mmHg 72%
    13:00 +13°C° 0.1 mm 5 m/s 735 mmHg 72%
    14:00 +13°C° 0.1 mm 5 m/s 734 mmHg 72%
    15:00 +13°C° 0.1 mm 4 m/s 734 mmHg 73%
    16:00 +12°C° 0.1 mm 4 m/s 734 mmHg 76%
    17:00 +11°C° 0.1 mm 4 m/s 734 mmHg 79%
    18:00 +11°C° 0.1 mm 4 m/s 734 mmHg 82%
    19:00 +8°C° 0 mm 4 m/s 734 mmHg 83%
    20:00 +7°C° 0 mm 4 m/s 734 mmHg 83%
    21:00 +5°C° 0 mm 4 m/s 734 mmHg 83%
    22:00 +4°C° 0 mm 3 m/s 734 mmHg 84%
    23:00 +4°C° 0 mm 3 m/s 735 mmHg 84%
    Mostrar mais